Location: Kresge Environmental Education Center
(43.1138°N, 83.2433°W)
Time: 19:46:33
(UTC-05:00)

Daily predictions for brighter satellites

Satellite Brightness Start Highest point End
(mag) Time Altitude Azimuth Time Altitude Azimuth Time Altitude Azimuth
Cosmos 372 Rocket 4.0 17:22:20 10° SSW 17:27:33 78° ESE 17:32:50 10° NNE
IRS-1A Rocket 4.2 17:22:46 10° SSE 17:28:16 83° ENE 17:33:49 10° NNW
YAOGAN 1 3.1 17:24:59 10° SE 17:28:56 35° ENE 17:32:54 10° N
Cosmos 1844 Rocket 2.8 17:25:19 10° S 17:30:46 58° ESE 17:36:18 10° NNE
Cosmos 1812 4.0 17:28:40 10° SE 17:31:42 23° E 17:34:46 10° NE
Meteor 1-11 Rocket 4.4 17:26:24 10° NNW 17:31:52 60° W 17:37:15 10° S
COSMOS 2487 4.4 17:33:46 10° NE 17:35:09 12° ENE 17:36:31 10° E
Cosmos 1378 Rocket 4.0 17:31:15 10° SSW 17:35:32 66° W 17:39:49 10° N
AQUARIUS 4.4 17:33:47 10° SE 17:38:06 49° ENE 17:42:27 10° N
USA 32 4.3 17:33:21 10° SSE 17:38:21 48° E 17:43:22 10° NNE
Ariane Rocket 4.3 17:33:51 10° S 17:38:41 45° W 17:43:34 10° NNW
ISS -3.2 17:35:40 10° WSW 17:38:57 74° NNW 17:42:12 10° NE
SL-8 Rocket 4.0 17:32:59 10° N 17:39:06 62° E 17:45:10 10° SSE
CZ-2C R/B 4.0 17:36:51 10° N 17:41:16 69° WNW 17:45:43 10° SSW
Cosmos 1346 Rocket 4.5 17:41:12 10° ESE 17:43:24 15° E 17:45:20 11° ENE
ATLAS 2AS CENTAUR R/B 3.0 17:37:20 10° NNW 17:45:29 72° NE 17:53:05 10° SE
Cosmos 494 Rocket 4.2 17:41:00 10° N 17:46:05 48° ENE 17:51:08 10° SE
IDEFIX/ARIANE 42P 2.6 17:41:19 10° SSE 17:46:26 62° ENE 17:51:34 10° N
CORIOLIS 4.2 17:41:37 10° SSE 17:46:54 57° ENE 17:52:12 10° N
Cosmos 1844 3.8 17:42:05 10° S 17:47:31 59° ESE 17:52:59 10° NNE
Cosmos 1455 Rocket 3.4 17:44:01 10° N 17:48:14 43° ENE 17:52:26 10° SSE
Cosmos 2366 rocket 4.1 17:44:04 10° N 17:50:19 56° ENE 17:56:29 10° SSE
Cosmos 1959 Rocket 4.5 17:47:56 10° N 17:54:05 67° E 18:00:18 10° SSE
CZ-3B DEB 2.1 17:50:55 10° SSW 17:54:20 63° SE 18:02:20 12° NE
Cosmos 2218 Rocket 4.0 17:48:43 10° N 17:55:01 68° E 18:01:11 10° SSE
Cosmos 2181 Rocket 4.3 17:51:28 10° SSW 17:57:49 75° W 18:04:17 10° N
MSX 3.9 17:53:35 10° SSE 17:59:11 57° ENE 18:04:49 10° N
Thor Agena Rocket 3.5 17:56:32 10° NNE 18:01:46 79° ESE 18:07:01 10° SSW
Abrixas 3.6 17:59:34 10° WNW 18:02:13 29° N 18:03:36 20° NE
CZ-4 R/B 1.9 17:59:10 10° S 18:03:19 68° WSW 18:07:28 10° NNW
Cosmos 2278 Rocket 2.5 17:58:39 10° S 18:04:03 49° ESE 18:09:21 11° NE
SMAP 3.1 17:59:36 10° SSE 18:04:15 89° WSW 18:08:57 10° NNW
OTV 4 3.5 18:05:10 10° SW 18:06:27 12° SSW 18:07:45 10° S
Cosmos 1238 Rocket 1.9 18:04:43 10° S 18:07:39 68° E 18:10:41 10° NNE
SJ-12 4.2 18:04:30 10° S 18:08:34 70° W 18:12:41 10° NNW
OPS 8737 4.2 18:05:17 10° SSW 18:08:35 69° SE 18:10:36 20° NE
CZ-2C R/B 2.6 18:05:33 10° S 18:10:31 78° WSW 18:15:41 10° NNW
Cosmos 1975 3.0 18:06:39 10° N 18:10:37 47° ENE 18:14:32 10° SSE
Meteor 1-12 Rocket 4.2 18:05:36 10° N 18:11:23 69° ENE 18:17:15 10° SSE
Cosmos 2251 Rocket 3.6 18:07:25 10° NNW 18:12:49 88° WSW 18:18:07 10° SSE
MONITOR-E 4.3 18:10:16 10° SSE 18:13:23 53° ENE 18:16:32 10° N
SL-27 R/B 3.7 18:15:53 10° NNW 18:19:26 47° WSW 18:22:56 10° S
Genesis I 3.5 18:17:10 10° NNW 18:20:58 43° NE 18:23:19 20° ESE
COSMOS 2441 4.3 18:17:09 10° SSE 18:22:00 74° ENE 18:26:54 10° N
Cosmos 2082 Rocket 2.6 18:23:03 10° NNW 18:28:22 40° ENE 18:33:41 10° SE
SL-8 R/B 3.7 18:23:43 10° SW 18:28:27 71° SSE 18:30:50 29° ENE
Cosmos 1484 Rocket 2.5 18:25:51 10° SSE 18:29:35 70° ENE 18:33:18 10° N
Cosmos 1833 Rocket 3.2 18:24:47 10° N 18:29:57 35° NE 18:33:05 21° ESE
Meteor 2-21 4.4 18:25:48 10° N 18:31:58 64° E 18:38:02 10° SSE
COSMO-SKYMED 1 2.5 18:34:05 15° NNE 18:37:43 69° ESE 18:42:02 10° S
Cosmos 1500 3.1 18:36:58 10° N 18:40:48 87° ENE 18:44:39 10° S
Meteor 1-28 Rocket 3.4 18:45:29 46° ESE 18:45:29 46° ESE 18:49:00 10° S
Nadezhda 3 Rocket 3.9 18:42:51 10° S 18:49:00 72° E 18:55:16 10° NNE
Timation 1 Rocket 4.5 18:48:03 10° S 18:53:44 49° ESE 18:55:27 38° ENE
Meteor 2-14 Rocket 4.3 18:47:49 10° N 18:54:00 70° E 19:00:06 10° SSE
Tiangong 1 2.7 18:55:21 10° SW 18:57:12 25° S 18:57:12 25° S
GEOS 3 Rocket 3.5 18:53:31 13° SE 18:58:06 88° NE 19:03:15 10° NW
Meteor 2-4 Rocket 3.9 18:53:51 10° SSE 18:58:30 42° ESE 18:58:30 42° ESE
BREEZE-M DEB (TANK) 4.1 19:03:22 10° WNW 19:04:10 18° NW 19:04:10 18° NW
USA 234 4.0 19:03:53 24° NNE 19:07:23 43° NNW 19:13:27 10° W
Cosmos 1025 Rocket 4.3 19:05:16 10° S 19:07:27 28° SSE 19:07:27 28° SSE
ATLAS 3B CENTAUR R/B 4.4 18:54:56 10° WSW 19:10:57 35° SSW 19:15:57 19° SE
COSMOS 2487 3.3 19:07:30 10° NNW 19:11:01 51° WSW 19:13:00 23° S
Cosmos 921 Rocket 3.0 19:10:51 10° SSW 19:14:35 69° S 19:14:35 69° S
ISS -1.0 19:13:13 10° WNW 19:14:53 19° NW 19:14:53 19° NW
Meteor 2-16 Rocket 4.4 19:10:36 10° N 19:16:42 86° W 19:22:47 10° S
Cosmos 1346 Rocket 4.1 19:15:47 10° SW 19:19:26 38° WNW 19:20:56 27° NNW
BREEZE M DEB (TANK) 3.5 19:15:57 10° WNW 19:19:50 69° NNE 19:21:54 48° E
Cosmos 1371 Rocket 4.3 19:15:53 10° S 19:20:09 51° SSE 19:20:09 51° SSE
NOSS 3-4 (A) 3.8 19:14:20 10° NNW 19:21:11 55° NE 19:21:59 52° ENE
NOSS 3-4 (C) 3.8 19:14:27 10° NNW 19:21:17 54° NE 19:22:03 52° ENE
Okean 1-7 Rocket 4.3 19:27:02 10° SSW 19:31:27 54° W 19:32:13 47° NW
Cosmos 2297 3.9 19:28:07 10° SW 19:33:44 67° WNW 19:35:04 50° N
Cosmos 1934 Rocket 4.0 19:39:07 10° N 19:45:17 77° W 19:51:33 10° S
Cosmos 2278 Rocket 3.9 19:43:36 10° WSW 19:48:23 27° NW 19:51:13 19° N
Cosmos 2082 Rocket 3.8 20:07:22 10° NW 20:12:18 31° WSW 20:15:49 17° SSW
Cosmos 1833 Rocket 4.0 20:08:46 10° NW 20:13:51 36° WSW 20:14:56 33° SW
CZ-3B DEB 4.1 20:24:23 10° WNW 20:30:30 45° N 20:30:57 44° N
